Flag for U.S.A. Weather past 2 weeks in Glendale, Arizona, U.S.A.

Now
85 °F

Sunny.


Feels Like: 82 °F
Forecast: 63 / 89 °F
Wind: No wind

Location: Phoenix-Deer Valley Municipal Airport

Current Time: Oct 1, 2014 at 3:58:12 PM

Latest Report: Oct 1, 2014 at 2:53 PM


Visibility: 10 mi

Pressure: 29.71 "Hg

Humidity: 18%

Dew point: 37 °F

Location of GlendaleLocation

Historic Weather in Glendale — Graph

°F

Glendale temperature yesterday

Maximum temperature yesterday: 86 °F (at 2:53 PM)
Minimum temperature yesterday: 61 °F (at 4:53 AM)
Average temperature yesterday: 74 °F

Past Weeks' High & Low Weather Summary

 TemperatureHumidityPressure
High101 °F (Sep 24, 2:53 PM)94% (Sep 28, 3:04 AM)29.93 "Hg (Sep 28, 3:04 AM)
Low61 °F (Sep 30, 4:53 AM)12% (Sep 23, 4:53 PM)29.59 "Hg (Sep 27, 1:53 PM)
Average83 °F44%29.77 "Hg
* Reported Sep 16 2:53 PM — Oct 1 2:53 PM, Glendale, Weather by CustomWeather, © 2014

Note: Actual official high and low records may vary slightly from our data, if they occured in-between our weather recording intervals... More about our weather records

Advertising

Glendale weather history for previous 24 hours

 ConditionsComfort  
Time TempWeatherWind HumidityBarometerVisibility
2:53 PM
Oct 1
85 °FSunny.No wind18%29.71 "Hg10 mi
1:53 PM86 °FSunny.No wind18%29.71 "Hg10 mi
12:53 PM84 °FSunny.No wind19%29.73 "Hg10 mi
11:53 AM83 °FSunny.No wind22%29.75 "Hg10 mi
10:53 AM80 °FSunny.6 mph25%29.77 "Hg10 mi
9:53 AM77 °FSunny.5 mph32%29.78 "Hg10 mi
8:53 AM74 °FSunny.No wind41%29.77 "Hg10 mi
7:53 AM70 °FSunny.3 mph44%29.76 "Hg10 mi
6:53 AM66 °FSunny.9 mph49%29.75 "Hg10 mi
5:53 AM66 °FClear.8 mph49%29.73 "Hg10 mi
4:53 AM63 °FClear.No wind63%29.72 "Hg10 mi
3:53 AM66 °FClear.5 mph54%29.71 "Hg10 mi
2:53 AM67 °FClear.3 mph51%29.70 "Hg10 mi
1:53 AM68 °FClear.No wind49%29.70 "Hg10 mi
12:53 AM69 °FClear.8 mph47%29.71 "Hg10 mi
11:53 PM
Sep 30
70 °FClear.5 mph46%29.70 "Hg10 mi
10:53 PM71 °FClear.8 mph45%29.71 "Hg10 mi
9:53 PM71 °FClear.No wind51%29.72 "Hg10 mi
8:53 PM74 °FClear.No wind46%29.72 "Hg10 mi
7:53 PM78 °FClear.No wind32%29.71 "Hg10 mi
6:53 PM81 °FClear.No wind25%29.70 "Hg10 mi
5:53 PM84 °FSunny.5 mph19%29.70 "Hg10 mi
4:53 PM85 °FSunny.No wind17%29.70 "Hg10 mi
3:53 PM85 °FSunny.3 mph18%29.71 "Hg10 mi
Weather by CustomWeather, © 2014

See weather overviewHow to use our weather pages